Regional Weather Roundup
Issued by NWS State College, PA

Home | Current Version | Previous Version | Graphics & Text | Print | Product List | Glossary On
Versions: 1 2 3 4 5 6 7 8 9 10 11 12 13 14 15 16 17 18 19 20 21 22 23 24 25 26 27 28 29 30 31 32 33 34 35 36 37 38 39 40 41 42 43 44 45 46 47 48 49 50
000
ASUS41 KCTP 232110
RWRCTP

REGIONAL WEATHER ROUNDUP
NATIONAL WEATHER SERVICE STATE COLLEGE PA
500 PM EDT SAT SEP 23 2017

Note: "fair" indicates few or no clouds below 12,000 feet with no
significant weather and/or obstructions to visibility.

* = STATION THAT DOES NOT REPORT PRECIPITATION /E.G. RAIN...SNOW...ETC/
    THUNDER OR FOG.

PAZ002>004-007>009-013>016-020>023-029>032-232200-
WESTERN PENNSYLVANIA

CITY           SKY/WX    TMP DP  RH WIND       PRES   REMARKS
ERIE           SUNNY     80  56  43 N6        30.13F
MEADVILLE      SUNNY     86  59  39 NE8       30.15F
FRANKLIN*      SUNNY     84  61  45 N8        30.15F
NEW CASTLE     FAIR      88  58  36 NE8       30.13F
BEAVER COUNTY  SUNNY     88  54  31 N6        30.13
BUTLER*        SUNNY     85  57  38 NE7       30.13F
PITTSBURGH INT MOSUNNY   89  52  28 N8        30.12S
PITTSBURGH     SUNNY     85  50  29 NE5       30.11F
INDIANA*       SUNNY     86  55  35 CALM      30.15S
LATROBE        SUNNY     82  54  36 CALM      30.13S
WASHINGTON CO* SUNNY     86  54  32 NE7       30.12F
$$

PAZ004>006-010>012-017>019-024>028-033>037-041-042-045-046-049>053-232200-
CENTRAL PENNSYLVANIA

CITY           SKY/WX    TMP DP  RH WIND       PRES   REMARKS
BRADFORD       SUNNY     83  62  49 N9        30.18S
DUBOIS         SUNNY     84  55  36 VRB3      30.13F
CLEARFIELD     SUNNY     88  55  32 CALM      30.13F
JOHNSTOWN      SUNNY     82  51  34 NE8       30.17S
ALTOONA        SUNNY     87  55  33 E3        30.13S
STATE COLLEGE  SUNNY     84  57  39 CALM      30.10F
WILLIAMSPORT   SUNNY     90  61  37 W5        30.04F
SELINSGROVE    SUNNY     86  63  45 CALM      30.06F
FT INDIANTOWN  SUNNY     86  58  38 NW6       30.05F
CAPITAL CITY   SUNNY     87  51  28 NW7       30.05F
HARRISBURG     MOSUNNY   86  55  34 N7        30.04F
YORK           SUNNY     84  54  35 N8        30.05F
$$

PAZ038>040-043-044-047-048-054-055-060>062-067>071-232200-
EASTERN PENNSYLVANIA

CITY           SKY/WX    TMP DP  RH WIND       PRES   REMARKS
SCRANTON       SUNNY     87  55  33 N9        30.08S
MOUNT POCONO   SUNNY     80  57  45 NW10      30.11S
ALLENTOWN      SUNNY     89  57  33 N3        30.02F
QUAKERTOWN*    CLEAR     86  57  37 N3        30.04F
READING        SUNNY     87  57  35 N8        30.02F
LANCASTER      SUNNY     86  56  35 NW8       30.04F
COATESVILLE    CLEAR     82  57  42 N6        30.06F
POTTSTOWN      SUNNY     85  57  38 CALM      30.04F
BLUE BELL      SUNNY     82  54  36 CALM      30.03S
DOYLESTOWN     SUNNY     88  56  33 N6        30.02F
WILLOW GROVE   NOT AVBL
NORTH PHILA    SUNNY     88  55  32 N8G22     30.02S
PHILADELPHIA   MOSUNNY   88  57  34 N9        30.00F
$$




USA.gov is the U.S. government's official web portal to all federal, state and local government web resources and services.